AMC-14

Last updated on Sun Jun 21 2026 00:03:04 GMT+0000 (Coordinated Universal Time)

1 32708U 08011A 26171.12004348 -.00000068 00000+0 00000+0 0 9992 2 32708 24.0077 20.4835 0045448 7.3617 350.1570 1.00355445 68195
UTC large
Height (km)
Speed (km/s)
/
Latitude / Longitude
Inclination (degrees)
Orbital Period (minutes)
Azimuth
Elevation
Range (km)
Doppler Factor

Next 0 passes for location: London (51.5072 / 0.1276)

No passes found over London.
AMC-14